SCP
0 0 0 0 0 0 0 0 0 0 0 0 0 0 0 0 0 0 0 0 -0 -0 -0 0 0 0 0 0 0 0 0 0 0 0 0 0 0 0 0 0 0 0 0 0 0
0 0 0 0 0 0 0 0 0 0 0 0 0 0 0 0 0 0 0 0 -0 -0 0 0 0 0 0 0 0 0 0 0 0 0 0 0 0 0 0 0 0 0 0 0 0
0 0 0 0 0 0 0 0 0 0 0 0 0 0 0 0 0 0 0 0 -0 0 0 0 0 0 0 0 0 0 0 0 0 0 0 0 0 0 0 0 0 0 0 0 0
0 0 0 0 0 0 0 0 0 0 0 0 0 0 0 0 0 0 0 0 0 0 0 0 0 0 0 0 0 0 0 0 0 0 0 0 0 0 0 0 0 0 0 0 0
0 0 0 0 0 0 0 0 0 0 0 0 0 0 0 0 0 0 0 0 0 0 0 0 0 0 0 0 0 0 0 0 0 0 0 0 -0 0 0 0 0 0 0 0 0
0 0 0 0 0 0 0 0 0 0 0 0 0 0 0 0 0 0 0 0 0 0 0 0 0 0 0 0 0 0 0 0 0 0 0 -0 -0 0 0 0 0 0 0 0 0
0 0 0 0 0 0 0 0 0 0 0 0 0 0 0 0 0 0 0 0 0 0 0 0 0 0 0 0 0 0 0 0 0 0 -0 -0 -0 0 0 0 0 0 0 0 0
0 0 0 0 0 0 0 0 0 0 0 0 0 0 0 0 0 0 0 0 0 0 0 0 0 0 0 0 0 0 0 0 0 0 -0 -0 -0 0 -0 0 0 0 0 0 0
0 0 0 0 0 0 0 0 0 0 0 0 0 0 0 0 0 0 0 0 0 0 0 0 0 0 0 0 0 0 0 0 0 0 0 0 -0 0 0 0 0 0 0 0 0
0 0 0 0 0 0 0 0 0 0 0 0 0 0 0 0 0 0 0 0 0 0 0 0 0 0 0 0 0 0 0 0 0 0 0 -0 -0 -0 0 0 0 0 0 0 0
0 0 0 0 0 0 0 0 0 0 0 0 0 0 0 0 0 0 0 0 0 0 0 0 0 0 0 0 0 0 0 0 0 0 -0 -0 -0 -0 0 0 0 0 0 0 0
0 0 0 0 0 0 0 -0 0 0 0 0 0 0 0 0 0 0 0 0 0 0 0 0 0 0 0 0 0 0 0 0 0 0 0 -0 0 -0 0 0 0 0 0 0 0
0 0 0 0 0 0 0 0 0 0 0 0 0 0 0 0 0 0 0 0 0 0 0 0 0 0 0 0 0 0 0 0 0 0 0 -0 -0 -0 -0 0 0 0 0 0 0
0 0 0 0 0 0 0 0 0 0 0 -0 0 0 0 0 0 0 0 0 0 0 0 0 0 0 0 0 0 0 0 0 0 0 0 0 -0 -0 0 0 0 0 0 0 0
0 0 0 0 0 0 0 0 0 0 0 0 0 0 0 0 0 0 0 0 0 0 0 0 0 0 0 0 0 0 0 0 0 0 0 0 -0 -0 0 -0 -0 0 0 0 0
0 0 0 0 0 0 0 0 0 0 0 0 0 0 0 0 0 0 0 0 0 0 0 0 0 0 0 0 0 0 0 0 0 0 0 0 0 -0 -0 -0 -0 0 0 0 0
0 0 0 0 0 0 0 0 0 0 0 0 0 0 0 0 0 0 0 0 0 0 0 0 0 0 0 0 0 0 0 0 0 0 0 0 0 -0 -0 -0 0 -0 -0 -0 0
0 0 0 0 0 0 0 0 0 0 0 0 0 0 0 0 0 0 0 0 0 0 0 0 0 0 0 0 0 0 0 0 0 0 0 0 0 0 0 0 0 0 -0 -0 -0
0 0 0 0 0 0 0 0 0 0 0 0 0 0 0 0 0 0 0 0 0 0 0 0 0 0 0 0 0 0 0 0 0 0 0 0 0 0 0 0 0 0 -0 -0 -0
0 0 0 0 0 0 0 0 0 0 0 0 0 0 0 0 0 0 0 0 0 0 0 0 0 0 0 0 0 0 0 0 0 0 0 0 0 -0 0 0 0 0 0 0 -0
0 0 0 0 0 0 0 0 0 0 0 0 0 0 0 0 0 0 0 0 0 0 0 0 0 0 0 0 0 0 0 0 0 0 0 0 0 0 0 0 0 0 0 0 0
0 0 0 0 0 0 0 0 0 0 0 0 0 0 0 0 0 0 0 0 0 0 0 0 0 0 0 0 0 0 0 0 0 0 0 0 0 0 0 0 0 0 0 0 0
0 0 0 0 0 0 0 0 0 0 0 0 0 0 0 0 0 0 0 0 0 0 0 0 0 0 0 0 0 0 0 0 0 0 0 0 0 0 0 0 0 0 0 0 0
0 0 0 0 0 0 0 0 0 0 0 0 0 0 0 0 0 0 0 0 0 0 0 0 0 0 0 0 0 0 0 0 0 0 0 0 0 0 0 0 0 0 0 0 0
0 0 0 0 0 0 0 0 0 0 0 0 0 0 0 0 0 0 0 0 0 0 0 0 0 0 0 0 0 0 0 0 0 0 0 0 0 0 0 0 0 0 0 0 0
0 0 0 0 0 0 0 0 0 0 0 0 0 0 0 0 0 0 0 0 0 0 0 0 0 0 0 0 0 0 0 0 0 0 0 0 0 0 0 0 0 0 0 0 0
0 0 0 0 0 0 0 0 0 0 0 0 0 0 0 0 0 0 0 0 0 0 0 0 0 0 0 0 0 0 0 0 0 0 0 0 0 0 0 0 0 0 0 0 0
Wind_Speed_500mb
31 31 26 24 26 25 25 23 22 21 17 16 15 15 12 7 4 3 5 5 4 1 7 11 14 17 8 5 5 4 8 2 2 7 10 13 7 6 2 3 4 4 6 13 30
34 29 26 21 23 26 24 25 24 22 20 16 13 13 13 11 10 9 7 7 4 6 15 17 11 14 5 4 5 8 7 1 5 4 9 14 7 11 1 3 3 15 9 25 25
29 34 25 20 19 23 25 22 24 23 20 18 15 12 11 11 8 4 6 7 3 9 12 15 16 5 4 4 7 6 4 8 7 14 13 9 4 5 2 2 1 7 22 24 26
32 28 28 20 18 19 23 23 22 23 22 18 16 13 10 7 5 4 6 5 3 9 13 20 19 4 7 6 5 10 13 11 4 9 9 6 2 1 10 5 2 9 15 20 25
29 32 25 23 22 19 20 23 23 22 21 19 15 13 8 7 12 11 8 6 7 12 16 17 13 5 8 9 9 8 7 13 11 10 9 1 4 8 10 7 6 7 15 21 22
31 34 31 27 24 27 21 19 21 23 21 19 16 11 7 8 10 9 8 8 10 14 16 18 4 10 15 8 8 13 18 15 7 5 2 2 5 4 3 20 9 2 14 16 23
40 31 32 33 34 26 31 21 17 19 22 18 15 14 14 19 9 7 9 6 10 18 17 20 18 10 16 9 18 28 9 3 7 5 1 4 8 13 20 15 3 8 10 11 24
35 37 36 36 36 32 27 23 16 16 18 19 14 13 13 13 14 13 11 10 10 16 21 22 19 22 11 27 10 3 5 2 4 10 2 5 13 6 28 14 6 11 5 11 24
28 38 36 40 38 31 30 24 21 13 16 16 12 9 13 10 15 17 16 11 16 17 22 27 23 11 15 11 9 6 3 6 4 19 5 6 10 9 25 17 12 16 8 16 23
43 38 35 36 37 36 32 27 18 16 14 15 17 8 15 8 13 21 21 23 11 24 18 10 7 7 3 6 9 11 8 6 7 7 5 6 20 20 26 25 24 20 15 19 20
38 38 35 35 38 34 34 20 10 7 8 13 4 5 4 11 12 20 25 22 19 8 7 8 7 11 20 13 7 9 7 7 4 3 4 11 22 23 29 35 28 27 23 20 18
36 40 39 37 45 31 29 15 26 11 15 18 31 30 19 13 9 22 31 16 13 9 11 8 7 5 8 17 9 7 5 5 5 6 4 5 25 27 23 24 41 32 28 21 16
38 37 39 31 45 34 30 23 15 5 11 12 29 30 33 28 14 29 39 16 9 10 12 11 4 6 6 8 11 6 8 7 7 1 6 10 17 10 1 24 36 33 26 19 15
29 36 34 31 43 43 38 27 27 11 5 10 14 17 26 22 11 24 42 13 9 18 14 5 8 8 7 7 9 9 5 8 8 6 3 3 9 10 7 11 14 32 30 25 18
33 40 33 41 40 34 34 27 24 21 7 3 10 11 21 21 26 18 41 11 11 8 12 8 13 9 6 5 4 8 5 8 4 4 5 3 4 14 5 12 19 30 37 32 22
38 40 19 60 53 40 31 30 28 4 13 4 7 9 11 5 6 13 12 10 8 8 11 5 2 3 6 4 4 13 9 7 7 6 4 8 9 10 11 14 10 22 45 39 28
37 49 44 38 61 41 60 42 7 10 8 9 9 10 9 10 6 10 14 13 13 10 5 4 3 2 8 10 11 1 9 5 7 6 10 7 3 18 13 14 16 33 55 43 30
38 56 59 36 48 59 73 4 11 9 14 7 7 13 8 10 8 10 13 13 13 4 7 14 6 17 10 10 13 11 10 10 14 8 7 6 13 12 8 11 26 54 55 44 36
41 47 65 60 54 69 58 9 16 13 13 17 7 8 6 7 9 10 14 10 15 20 10 11 2 5 8 5 6 12 11 5 12 7 6 8 14 13 4 8 24 44 53 49 40
39 38 65 47 63 90 18 48 17 17 13 10 16 10 17 13 12 13 18 12 11 25 7 13 9 6 1 2 1 6 3 5 5 7 7 9 10 12 13 18 16 23 53 53 44
37 15 31 43 78 62 26 14 11 28 14 13 9 10 11 13 12 11 9 9 13 23 23 6 9 4 5 14 17 5 5 6 5 8 10 3 12 12 18 28 33 35 59 59 53
34 8 21 45 26 9 29 27 22 21 23 7 10 9 15 16 13 10 16 9 13 21 18 4 9 9 14 5 5 5 13 11 9 11 5 6 12 5 9 23 43 46 64 59 53
21 22 19 85 28 16 10 10 16 17 17 15 13 11 8 15 6 15 12 1 13 9 27 10 4 6 11 9 5 12 13 10 5 5 13 13 11 3 6 14 44 53 65 66 62
20 6 26 53 25 40 30 21 22 9 16 16 11 11 11 8 8 9 10 5 11 9 4 13 8 12 16 10 11 14 17 21 12 6 8 13 8 9 11 13 24 53 65 68 70
26 10 13 12 27 14 32 23 25 16 10 34 4 29 26 13 18 12 7 5 8 8 5 8 10 5 6 2 7 10 13 33 28 32 17 12 19 16 23 26 40 57 61 66 72
16 9 7 6 6 14 16 40 52 17 25 30 31 34 32 19 20 20 17 10 11 2 5 6 5 5 6 8 5 10 15 25 43 42 17 11 16 14 12 36 42 56 66 72 77
25 15 3 10 5 9 16 16 53 48 15 52 48 24 32 28 26 13 21 29 23 21 12 9 10 4 10 4 4 20 28 32 24 34 46 35 38 9 14 19 49 68 78 84 84
Wind_Direction_500mb
355 350 338 325 318 316 317 320 322 324 327 326 327 322 313 290 350 286 298 301 304 179 128 133 135 120 97 126 43 1 62 208 14 131 150 148 122 145 111 187 205 204 50 326 311
346 352 347 339 329 321 319 318 318 320 322 321 322 320 316 299 282 280 282 306 274 176 150 131 117 130 87 64 40 70 95 105 326 49 145 147 87 148 162 250 207 152 300 316 334
338 343 348 348 341 327 320 319 318 318 317 319 317 316 314 312 301 268 264 296 256 188 180 158 149 178 94 90 29 46 118 138 20 59 110 104 100 131 33 99 108 350 331 339 324
323 330 343 346 344 337 327 320 318 317 316 313 313 313 299 296 236 344 279 294 216 173 170 156 152 157 120 115 101 97 36 110 117 55 77 87 118 285 214 234 191 329 330 318 333
302 316 320 345 345 341 335 327 318 316 314 311 308 310 296 260 255 277 282 267 200 177 165 148 163 157 125 128 107 99 114 77 108 93 69 16 249 238 247 182 233 330 308 332 335
287 301 305 304 327 342 339 334 321 316 311 307 304 301 264 260 261 270 259 251 216 182 174 167 89 165 99 66 71 123 110 119 140 118 96 45 291 258 273 196 255 274 305 328 326
279 281 299 300 299 305 327 332 325 315 309 302 297 291 261 251 254 266 244 230 188 186 165 176 157 162 121 97 108 126 96 124 202 198 96 16 277 228 160 198 132 207 297 316 310
268 284 281 289 292 294 300 324 321 312 304 296 286 286 263 248 249 231 200 167 151 186 173 156 161 126 108 123 92 90 67 70 198 155 248 79 269 198 176 179 178 229 252 303 302
272 285 275 282 291 292 289 304 317 309 296 285 274 260 266 249 221 195 186 145 133 124 148 150 149 103 133 105 44 2 206 197 260 196 120 156 269 183 181 183 191 222 240 281 297
256 269 270 273 281 293 289 277 297 301 277 265 229 267 242 224 212 189 180 153 124 130 130 135 114 94 64 97 200 185 192 223 222 223 162 238 254 260 235 196 192 223 214 269 292
263 258 269 283 277 275 285 268 271 293 219 225 213 209 228 221 200 187 175 163 145 154 155 183 105 193 207 178 130 130 166 171 114 146 200 237 267 260 268 202 192 221 208 254 282
259 261 255 265 276 263 267 251 214 213 291 261 248 242 235 198 201 197 175 168 166 183 135 51 220 180 140 145 123 95 122 241 326 156 164 336 278 255 231 208 203 213 203 229 257
245 257 249 254 267 245 250 237 173 119 255 250 234 230 221 212 220 205 185 183 174 181 176 151 181 157 122 140 136 165 168 200 177 177 241 308 297 304 77 195 197 203 204 223 244
252 244 250 260 243 241 242 224 216 174 13 253 215 204 194 185 239 192 186 189 194 187 171 181 149 159 160 184 160 172 175 144 140 80 240 135 280 302 202 176 200 203 202 213 220
254 232 253 245 238 221 241 221 194 147 258 134 147 168 167 174 141 178 185 194 182 141 124 216 159 164 163 186 167 176 130 135 128 124 61 266 89 269 154 228 226 210 203 206 208
252 228 259 223 238 234 200 160 144 93 247 173 134 151 129 201 136 126 166 169 136 90 46 114 153 127 142 78 14 146 91 52 49 82 22 248 140 272 207 208 204 192 197 196 195
259 233 240 227 220 220 153 144 62 199 18 229 192 169 157 165 158 168 166 180 158 111 180 79 188 120 148 86 9 42 100 16 4 7 219 355 87 249 253 213 191 176 186 187 191
255 239 242 232 221 189 160 82 196 219 212 167 131 117 174 150 205 196 140 198 250 151 128 152 251 171 187 192 178 184 182 166 192 191 241 20 230 255 272 204 181 173 175 178 187
256 248 247 241 212 199 159 205 207 191 177 148 81 99 230 180 156 155 194 208 214 187 173 148 111 64 69 35 151 185 207 186 105 42 61 218 280 299 53 92 141 158 171 180 187
252 259 252 240 210 177 198 221 197 192 148 150 163 159 181 201 155 175 179 207 214 191 209 197 103 360 301 109 94 165 201 96 350 132 236 280 264 236 217 207 172 173 178 183 187
242 252 245 224 199 182 212 217 174 203 171 160 146 150 177 190 177 196 211 289 207 193 183 148 113 275 110 210 178 157 210 219 145 157 167 215 257 211 207 198 190 190 186 186 189
220 224 242 196 198 201 205 203 172 180 190 196 139 133 160 172 175 219 212 243 353 157 185 173 115 163 202 237 201 207 198 180 145 209 222 149 272 198 259 207 189 192 191 193 195
209 207 257 188 202 206 213 147 163 150 173 170 179 161 134 150 194 205 206 152 4 178 165 190 237 83 354 348 337 218 194 209 143 81 199 145 254 334 4 144 185 187 197 195 193
183 195 201 222 252 211 198 188 189 168 169 146 155 109 117 154 213 212 216 25 46 44 114 150 166 183 191 192 139 195 195 184 158 143 167 222 235 234 223 188 194 198 197 197 194
198 196 202 204 228 240 208 180 177 177 197 156 207 194 170 164 183 212 147 82 359 15 32 111 212 197 250 185 180 198 183 188 201 214 189 219 214 224 202 197 201 199 194 194 196
186 178 196 256 228 206 231 202 196 174 154 196 206 192 186 175 188 184 137 163 181 82 159 143 237 146 275 320 292 271 206 194 210 225 275 257 265 231 199 201 188 196 194 196 202
206 217 188 286 239 209 229 221 202 192 230 205 199 162 199 207 110 96 173 173 163 153 180 165 145 116 260 349 26 276 196 193 208 217 214 220 228 194 210 192 198 197 200 202 207
Wind_Speed_850mb
31 31 26 24 26 25 25 23 22 21 17 16 15 15 12 7 4 3 5 5 4 1 7 11 14 17 8 5 5 4 8 2 2 7 10 13 7 6 2 3 4 4 6 13 30
34 29 26 21 23 26 24 25 24 22 20 16 13 13 13 11 10 9 7 7 4 6 15 17 11 14 5 4 5 8 7 1 5 4 9 14 7 11 1 3 3 15 9 25 25
29 34 25 20 19 23 25 22 24 23 20 18 15 12 11 11 8 4 6 7 3 9 12 15 16 5 4 4 7 6 4 8 7 14 13 9 4 5 2 2 1 7 22 24 26
32 28 28 20 18 19 23 23 22 23 22 18 16 13 10 7 5 4 6 5 3 9 13 20 19 4 7 6 5 10 13 11 4 9 9 6 2 1 10 5 2 9 15 20 25
29 32 25 23 22 19 20 23 23 22 21 19 15 13 8 7 12 11 8 6 7 12 16 17 13 5 8 9 9 8 7 13 11 10 9 1 4 8 10 7 6 7 15 21 22
31 34 31 27 24 27 21 19 21 23 21 19 16 11 7 8 10 9 8 8 10 14 16 18 4 10 15 8 8 13 18 15 7 5 2 2 5 4 3 20 9 2 14 16 23
40 31 32 33 34 26 31 21 17 19 22 18 15 14 14 19 9 7 9 6 10 18 17 20 18 10 16 9 18 28 9 3 7 5 1 4 8 13 20 15 3 8 10 11 24
35 37 36 36 36 32 27 23 16 16 18 19 14 13 13 13 14 13 11 10 10 16 21 22 19 22 11 27 10 3 5 2 4 10 2 5 13 6 28 14 6 11 5 11 24
28 38 36 40 38 31 30 24 21 13 16 16 12 9 13 10 15 17 16 11 16 17 22 27 23 11 15 11 9 6 3 6 4 19 5 6 10 9 25 17 12 16 8 16 23
43 38 35 36 37 36 32 27 18 16 14 15 17 8 15 8 13 21 21 23 11 24 18 10 7 7 3 6 9 11 8 6 7 7 5 6 20 20 26 25 24 20 15 19 20
38 38 35 35 38 34 34 20 10 7 8 13 4 5 4 11 12 20 25 22 19 8 7 8 7 11 20 13 7 9 7 7 4 3 4 11 22 23 29 35 28 27 23 20 18
36 40 39 37 45 31 29 15 26 11 15 18 31 30 19 13 9 22 31 16 13 9 11 8 7 5 8 17 9 7 5 5 5 6 4 5 25 27 23 24 41 32 28 21 16
38 37 39 31 45 34 30 23 15 5 11 12 29 30 33 28 14 29 39 16 9 10 12 11 4 6 6 8 11 6 8 7 7 1 6 10 17 10 1 24 36 33 26 19 15
29 36 34 31 43 43 38 27 27 11 5 10 14 17 26 22 11 24 42 13 9 18 14 5 8 8 7 7 9 9 5 8 8 6 3 3 9 10 7 11 14 32 30 25 18
33 40 33 41 40 34 34 27 24 21 7 3 10 11 21 21 26 18 41 11 11 8 12 8 13 9 6 5 4 8 5 8 4 4 5 3 4 14 5 12 19 30 37 32 22
38 40 19 60 53 40 31 30 28 4 13 4 7 9 11 5 6 13 12 10 8 8 11 5 2 3 6 4 4 13 9 7 7 6 4 8 9 10 11 14 10 22 45 39 28
37 49 44 38 61 41 60 42 7 10 8 9 9 10 9 10 6 10 14 13 13 10 5 4 3 2 8 10 11 1 9 5 7 6 10 7 3 18 13 14 16 33 55 43 30
38 56 59 36 48 59 73 4 11 9 14 7 7 13 8 10 8 10 13 13 13 4 7 14 6 17 10 10 13 11 10 10 14 8 7 6 13 12 8 11 26 54 55 44 36
41 47 65 60 54 69 58 9 16 13 13 17 7 8 6 7 9 10 14 10 15 20 10 11 2 5 8 5 6 12 11 5 12 7 6 8 14 13 4 8 24 44 53 49 40
39 38 65 47 63 90 18 48 17 17 13 10 16 10 17 13 12 13 18 12 11 25 7 13 9 6 1 2 1 6 3 5 5 7 7 9 10 12 13 18 16 23 53 53 44
37 15 31 43 78 62 26 14 11 28 14 13 9 10 11 13 12 11 9 9 13 23 23 6 9 4 5 14 17 5 5 6 5 8 10 3 12 12 18 28 33 35 59 59 53
34 8 21 45 26 9 29 27 22 21 23 7 10 9 15 16 13 10 16 9 13 21 18 4 9 9 14 5 5 5 13 11 9 11 5 6 12 5 9 23 43 46 64 59 53
21 22 19 85 28 16 10 10 16 17 17 15 13 11 8 15 6 15 12 1 13 9 27 10 4 6 11 9 5 12 13 10 5 5 13 13 11 3 6 14 44 53 65 66 62
20 6 26 53 25 40 30 21 22 9 16 16 11 11 11 8 8 9 10 5 11 9 4 13 8 12 16 10 11 14 17 21 12 6 8 13 8 9 11 13 24 53 65 68 70
26 10 13 12 27 14 32 23 25 16 10 34 4 29 26 13 18 12 7 5 8 8 5 8 10 5 6 2 7 10 13 33 28 32 17 12 19 16 23 26 40 57 61 66 72
16 9 7 6 6 14 16 40 52 17 25 30 31 34 32 19 20 20 17 10 11 2 5 6 5 5 6 8 5 10 15 25 43 42 17 11 16 14 12 36 42 56 66 72 77
25 15 3 10 5 9 16 16 53 48 15 52 48 24 32 28 26 13 21 29 23 21 12 9 10 4 10 4 4 20 28 32 24 34 46 35 38 9 14 19 49 68 78 84 84
Wind_Direction_850mb
355 350 338 325 318 316 317 320 322 324 327 326 327 322 313 290 350 286 298 301 304 179 128 133 135 120 97 126 43 1 62 208 14 131 150 148 122 145 111 187 205 204 50 326 311
346 352 347 339 329 321 319 318 318 320 322 321 322 320 316 299 282 280 282 306 274 176 150 131 117 130 87 64 40 70 95 105 326 49 145 147 87 148 162 250 207 152 300 316 334
338 343 348 348 341 327 320 319 318 318 317 319 317 316 314 312 301 268 264 296 256 188 180 158 149 178 94 90 29 46 118 138 20 59 110 104 100 131 33 99 108 350 331 339 324
323 330 343 346 344 337 327 320 318 317 316 313 313 313 299 296 236 344 279 294 216 173 170 156 152 157 120 115 101 97 36 110 117 55 77 87 118 285 214 234 191 329 330 318 333
302 316 320 345 345 341 335 327 318 316 314 311 308 310 296 260 255 277 282 267 200 177 165 148 163 157 125 128 107 99 114 77 108 93 69 16 249 238 247 182 233 330 308 332 335
287 301 305 304 327 342 339 334 321 316 311 307 304 301 264 260 261 270 259 251 216 182 174 167 89 165 99 66 71 123 110 119 140 118 96 45 291 258 273 196 255 274 305 328 326
279 281 299 300 299 305 327 332 325 315 309 302 297 291 261 251 254 266 244 230 188 186 165 176 157 162 121 97 108 126 96 124 202 198 96 16 277 228 160 198 132 207 297 316 310
268 284 281 289 292 294 300 324 321 312 304 296 286 286 263 248 249 231 200 167 151 186 173 156 161 126 108 123 92 90 67 70 198 155 248 79 269 198 176 179 178 229 252 303 302
272 285 275 282 291 292 289 304 317 309 296 285 274 260 266 249 221 195 186 145 133 124 148 150 149 103 133 105 44 2 206 197 260 196 120 156 269 183 181 183 191 222 240 281 297
256 269 270 273 281 293 289 277 297 301 277 265 229 267 242 224 212 189 180 153 124 130 130 135 114 94 64 97 200 185 192 223 222 223 162 238 254 260 235 196 192 223 214 269 292
263 258 269 283 277 275 285 268 271 293 219 225 213 209 228 221 200 187 175 163 145 154 155 183 105 193 207 178 130 130 166 171 114 146 200 237 267 260 268 202 192 221 208 254 282
259 261 255 265 276 263 267 251 214 213 291 261 248 242 235 198 201 197 175 168 166 183 135 51 220 180 140 145 123 95 122 241 326 156 164 336 278 255 231 208 203 213 203 229 257
245 257 249 254 267 245 250 237 173 119 255 250 234 230 221 212 220 205 185 183 174 181 176 151 181 157 122 140 136 165 168 200 177 177 241 308 297 304 77 195 197 203 204 223 244
252 244 250 260 243 241 242 224 216 174 13 253 215 204 194 185 239 192 186 189 194 187 171 181 149 159 160 184 160 172 175 144 140 80 240 135 280 302 202 176 200 203 202 213 220
254 232 253 245 238 221 241 221 194 147 258 134 147 168 167 174 141 178 185 194 182 141 124 216 159 164 163 186 167 176 130 135 128 124 61 266 89 269 154 228 226 210 203 206 208
252 228 259 223 238 234 200 160 144 93 247 173 134 151 129 201 136 126 166 169 136 90 46 114 153 127 142 78 14 146 91 52 49 82 22 248 140 272 207 208 204 192 197 196 195
259 233 240 227 220 220 153 144 62 199 18 229 192 169 157 165 158 168 166 180 158 111 180 79 188 120 148 86 9 42 100 16 4 7 219 355 87 249 253 213 191 176 186 187 191
255 239 242 232 221 189 160 82 196 219 212 167 131 117 174 150 205 196 140 198 250 151 128 152 251 171 187 192 178 184 182 166 192 191 241 20 230 255 272 204 181 173 175 178 187
256 248 247 241 212 199 159 205 207 191 177 148 81 99 230 180 156 155 194 208 214 187 173 148 111 64 69 35 151 185 207 186 105 42 61 218 280 299 53 92 141 158 171 180 187
252 259 252 240 210 177 198 221 197 192 148 150 163 159 181 201 155 175 179 207 214 191 209 197 103 360 301 109 94 165 201 96 350 132 236 280 264 236 217 207 172 173 178 183 187
242 252 245 224 199 182 212 217 174 203 171 160 146 150 177 190 177 196 211 289 207 193 183 148 113 275 110 210 178 157 210 219 145 157 167 215 257 211 207 198 190 190 186 186 189
220 224 242 196 198 201 205 203 172 180 190 196 139 133 160 172 175 219 212 243 353 157 185 173 115 163 202 237 201 207 198 180 145 209 222 149 272 198 259 207 189 192 191 193 195
209 207 257 188 202 206 213 147 163 150 173 170 179 161 134 150 194 205 206 152 4 178 165 190 237 83 354 348 337 218 194 209 143 81 199 145 254 334 4 144 185 187 197 195 193
183 195 201 222 252 211 198 188 189 168 169 146 155 109 117 154 213 212 216 25 46 44 114 150 166 183 191 192 139 195 195 184 158 143 167 222 235 234 223 188 194 198 197 197 194
198 196 202 204 228 240 208 180 177 177 197 156 207 194 170 164 183 212 147 82 359 15 32 111 212 197 250 185 180 198 183 188 201 214 189 219 214 224 202 197 201 199 194 194 196
186 178 196 256 228 206 231 202 196 174 154 196 206 192 186 175 188 184 137 163 181 82 159 143 237 146 275 320 292 271 206 194 210 225 275 257 265 231 199 201 188 196 194 196 202
206 217 188 286 239 209 229 221 202 192 230 205 199 162 199 207 110 96 173 173 163 153 180 165 145 116 260 349 26 276 196 193 208 217 214 220 228 194 210 192 198 197 200 202 207